{"data":{"norad_id":52566,"intl_designator":"2022-051AK","name":"STARLINK-3938","alt_names":[],"object_type":"PAYLOAD","status":"ACTIVE","operator":null,"country":"US","launch_date":"2022-05-13","launch_site_code":"AFWTR","launch_vehicle":null,"mission":null,"orbit_class":"UNKNOWN","rcs_meters":null,"size_class":null,"mass_kg":null,"dimensions":null,"purposes":["comms"],"wikipedia_slug":null,"has_3d_model":false,"image_url":null,"decayed_at":null,"tle_current":{"epoch":"2026-09-19T04:26:19.819104Z","epoch_age_seconds":176981,"freshness":"STALE","line1":"1 52566U 22051AK  26262.18495161 -.00000174  00000+0  59137-5 0  9999","line2":"2 52566  53.1611 332.4976 0001194  80.2614 279.8524 15.35398458240760","mean_motion":15.35398458,"eccentricity":0.0001194,"inclination_deg":53.1611,"raan_deg":332.4976,"arg_perigee_deg":80.2614,"mean_anomaly_deg":279.8524,"bstar":5.9137e-6,"rev_number":24076,"period_min":93.786729594332,"perigee_km":458.92077873801,"apogee_km":460.55366310196,"semimajor_km":6837.87422092,"source":"CELESTRAK","updated_at":"2026-09-20T09:00:40.063807Z"}}}